Location: Carr Mill
(33.2054°N, 85.9439°W)
Time: 23:45:21
(UTC+00:00)

Cosmos 2369 - Pass Details

Date: 29 October 2020
Orbit: 841 x 854 km, 71.0° (Epoch: 28 November)

Event Time Altitude Azimuth Distance (km) Brightness Sun altitude
Rises 23:27:54 0° 185° (S) 3,406 7.1 -7.6°
Reaches altitude 10° 23:30:24 10° 180° (S) 2,473 6.3 -8.1°
Maximum altitude 23:35:53 51° 106° (ESE) 1,062 3.9 -9.3°
Drops below altitude 10° 23:41:22 10° 32° (NNE) 2,481 5.8 -10.4°
Sets 23:43:53 0° 27° (NNE) 3,418 6.5 -10.9°
